EW6288 Weather Reports


Display with metric or nautical units.
time (UTC)temp
F
wind
direction
speed
MPH
gust
MPH
rain 1hr
in
rain 24hr
in
rain mn
in
humidity
%
barometer
mb
20260506181603 82 142 1.0 7.0 0.00 0.00 0.00 85 1009.6
20260506181100 82 163 1.0 4.0 0.00 0.00 0.00 86 1009.6
20260506180604 82 159 1.0 4.0 0.00 0.00 0.00 86 1009.7
20260506175601 82 220 0.0 3.0 0.00 0.00 0.00 87 1009.9
20260506175058 82 221 1.0 6.0 0.00 0.00 0.00 87 1010.0
20260506174558 81 152 1.0 6.0 0.00 0.00 0.00 88 1010.0
20260506174057 81 136 0.0 5.0 0.00 0.00 0.00 88 1010.1
20260506173834 81 131 0.0 2.0 0.00 0.00 0.00 88 1010.2
20260506173058 81 135 0.0 2.0 0.00 0.00 0.00 88 1010.2
20260506172558 81 136 0.0 2.0 0.00 0.00 0.00 88 1010.3
20260506172101 81 125 1.0 2.0 0.00 0.00 0.00 88 1010.3
20260506171555 81 125 0.0 2.0 0.00 0.00 0.00 88 1010.4
20260506171057 81 125 0.0 1.0 0.00 0.00 0.00 88 1010.5
20260506170556 80 125 0.0 2.0 0.00 0.00 0.00 87 1010.5
20260506170056 80 125 0.0 4.0 0.00 0.00 0.00 87 1010.5
20260506165555 80 126 0.0 4.0 0.00 0.00 0.00 87 1010.6
20260506165053 80 126 1.0 4.0 0.00 0.00 0.00 87 1010.6
20260506164552 80 137 1.0 5.0 0.00 0.00 0.00 87 1010.4
20260506164053 80 186 1.0 5.0 0.00 0.00 0.00 87 1010.4
20260506163553 80 120 1.0 5.0 0.00 0.00 0.00 87 1010.5
20260506163049 80 176 2.0 6.0 0.00 0.00 0.00 87 1010.3
20260506162547 80 121 2.0 6.0 0.00 0.00 0.00 87 1010.3
20260506162047 80 152 2.0 6.0 0.00 0.00 0.00 87 1010.3
20260506161547 80 138 2.0 5.0 0.00 0.00 0.00 87 1010.2
20260506161046 80 127 2.0 6.0 0.00 0.00 0.00 87 1010.3
20260506160547 80 151 3.0 7.0 0.00 0.00 0.00 87 1010.2
20260506160042 80 135 2.0 7.0 0.00 0.00 0.00 87 1010.1
20260506155813 80 167 1.0 6.0 0.00 0.00 0.00 87 1010.2
20260506155043 80 195 1.0 4.0 0.00 0.00 0.00 88 1010.1
20260506154542 80 140 2.0 5.0 0.00 0.00 0.00 88 1010.1
20260506154042 80 144 1.0 5.0 0.00 0.00 0.00 88 1010.1
20260506153539 80 117 1.0 6.0 0.00 0.00 0.00 88 1010.1
20260506153038 80 182 1.0 6.0 0.00 0.00 0.00 88 1010.1
20260506152536 79 121 2.0 6.0 0.00 0.00 0.00 88 1009.8
20260506152310 79 103 2.0 6.0 0.00 0.00 0.00 88 1009.6
20260506151805 79 155 1.0 5.0 0.00 0.00 0.00 88 1009.6
20260506151303 79 151 1.0 5.0 0.00 0.00 0.00 88 1009.6
20260506150535 79 147 1.0 7.0 0.00 0.00 0.00 88 1009.6
20260506150030 79 169 1.0 7.0 0.00 0.00 0.00 88 1009.6
20260506145529 79 169 1.0 6.0 0.00 0.00 0.00 89 1009.5
20260506145306 79 146 1.0 4.0 0.00 0.00 0.00 89 1009.1
20260506145029 79 152 1.0 5.0 0.00 0.00 0.00 89 1009.4
20260506144029 79 148 1.0 6.0 0.00 0.00 0.00 89 1009.1
20260506143527 79 150 1.0 9.0 0.00 0.00 0.00 89 1008.9
20260506143258 79 139 1.0 9.0 0.00 0.00 0.00 89 1009.0
20260506142525 79 123 2.0 9.0 0.00 0.00 0.00 89 1009.0
20260506142025 79 150 2.0 9.0 0.00 0.00 0.00 89 1008.9
20260506141527 79 165 2.0 7.0 0.00 0.00 0.00 89 1009.0
20260506141027 78 144 1.0 7.0 0.00 0.00 0.00 89 1009.1
20260506140523 78 126 2.0 6.0 0.00 0.00 0.00 89 1009.2
20260506140023 78 189 2.0 6.0 0.00 0.00 0.00 89 1009.1
20260506135522 78 107 2.0 7.0 0.00 0.00 0.00 89 1009.2
20260506135019 78 139 2.0 7.0 0.00 0.00 0.00 89 1009.2
20260506134752 78 116 2.0 6.0 0.00 0.00 0.00 89 1009.2
20260506134017 78 163 2.0 7.0 0.00 0.00 0.00 89 1009.2
20260506133513 78 144 2.0 7.0 0.00 0.00 0.00 89 1009.2
20260506133014 78 123 2.0 6.0 0.00 0.00 0.00 89 1009.4
20260506132515 78 138 2.0 6.0 0.00 0.00 0.00 89 1009.5
20260506132014 78 144 1.0 4.0 0.00 0.00 0.00 89 1009.4
20260506131514 78 155 0.0 3.0 0.00 0.00 0.00 89 1009.4
20260506131013 78 154 0.0 5.0 0.00 0.00 0.00 89 1009.5
20260506130514 78 154 0.0 5.0 0.00 0.00 0.00 89 1009.5
20260506130013 78 155 1.0 6.0 0.00 0.00 0.00 89 1009.5
20260506125510 77 157 1.0 6.0 0.00 0.00 0.00 89 1009.5
20260506125007 77 131 1.0 4.0 0.00 0.00 0.00 89 1009.5
20260506124506 77 122 1.0 6.0 0.00 0.00 0.00 88 1009.4
20260506124006 77 160 2.0 6.0 0.00 0.00 0.00 88 1009.4
20260506123505 77 179 2.0 5.0 0.00 0.00 0.00 88 1009.4
20260506123006 77 173 2.0 5.0 0.00 0.00 0.00 88 1009.2
20260506122506 77 139 1.0 3.0 0.00 0.00 0.00 88 1009.2
20260506122005 77 148 1.0 4.0 0.00 0.00 0.00 88 1009.1
20260506121506 77 141 1.0 4.0 0.00 0.00 0.00 88 1009.0
20260506121236 77 123 1.0 4.0 0.00 0.00 0.00 88 1009.0
20260506120502 77 107 1.0 4.0 0.00 0.00 0.00 88 1008.9
20260506120001 77 161 1.0 4.0 0.00 0.00 0.00 88 1008.8
20260506115501 77 104 1.0 8.0 0.00 0.00 0.00 88 1008.8
20260506115233 77 140 1.0 8.0 0.00 0.00 0.00 88 1008.7
20260506114501 77 142 1.0 3.0 0.00 0.00 0.00 88 1008.6
20260506114000 77 126 1.0 5.0 0.00 0.00 0.00 88 1008.6
20260506113731 77 154 1.0 5.0 0.00 0.00 0.00 88 1008.5
20260506112958 77 155 1.0 5.0 0.00 0.00 0.00 88 1008.4
20260506112502 77 132 1.0 7.0 0.00 0.00 0.00 88 1008.3
20260506112457 77 141 1.0 7.0 0.00 0.00 0.00 88 1008.3
20260506111456 77 128 2.0 7.0 0.00 0.00 0.00 88 1008.3
20260506110956 77 136 2.0 7.0 0.00 0.00 0.00 88 1008.2
20260506110458 77 166 1.0 4.0 0.00 0.00 0.00 88 1008.1
20260506110228 77 124 1.0 4.0 0.00 0.00 0.00 88 1008.1
20260506105454 77 129 1.0 4.0 0.00 0.00 0.00 88 1008.0
20260506105228 77 137 1.0 4.0 0.00 0.00 0.00 88 1008.0
20260506104454 77 158 0.0 2.0 0.00 0.00 0.00 87 1008.0
20260506103957 77 158 1.0 4.0 0.00 0.00 0.00 87 1008.0
20260506103454 77 159 1.0 4.0 0.00 0.00 0.00 87 1008.1
20260506102953 77 150 1.0 4.0 0.00 0.00 0.00 87 1008.1
20260506102453 77 143 1.0 6.0 0.00 0.00 0.00 87 1008.0
20260506101954 77 164 1.0 6.0 0.00 0.00 0.00 87 1008.0
20260506101454 77 126 1.0 5.0 0.00 0.00 0.00 87 1008.0
20260506100955 77 112 1.0 5.0 0.00 0.00 0.00 87 1007.9
20260506100455 77 139 1.0 4.0 0.00 0.00 0.00 87 1008.0
20260506095954 77 153 1.0 5.0 0.00 0.00 0.00 87 1008.0
20260506095453 77 157 1.0 5.0 0.00 0.00 0.00 87 1008.0
20260506094954 77 159 1.0 5.0 0.00 0.00 0.00 87 1007.9
20260506094458 77 155 1.0 3.0 0.00 0.00 0.00 87 1007.8
20260506094453 77 159 1.0 5.0 0.00 0.00 0.00 87 1007.8
20260506093451 77 155 1.0 3.0 0.00 0.00 0.00 87 1007.8
20260506092952 77 142 1.0 3.0 0.00 0.00 0.00 87 1007.9
20260506092454 77 148 1.0 3.0 0.00 0.00 0.00 87 1007.8
20260506091950 78 142 1.0 3.0 0.00 0.00 0.00 87 1007.8
20260506091451 78 142 1.0 3.0 0.00 0.00 0.00 87 1008.0
20260506090950 78 141 1.0 6.0 0.00 0.00 0.00 87 1008.0
20260506090448 78 141 1.0 6.0 0.00 0.00 0.00 87 1008.0
20260506085951 78 150 1.0 6.0 0.00 0.00 0.00 87 1008.1
20260506085946 78 163 2.0 6.0 0.00 0.00 0.00 87 1008.1
20260506084942 78 113 1.0 4.0 0.00 0.00 0.00 87 1008.1
20260506084441 78 136 1.0 4.0 0.00 0.00 0.00 86 1008.1
20260506083943 78 178 1.0 4.0 0.00 0.00 0.00 86 1008.1
20260506083441 78 153 1.0 4.0 0.00 0.00 0.00 86 1008.2
20260506082940 78 161 1.0 6.0 0.00 0.00 0.00 86 1008.2
20260506082439 78 161 1.0 6.0 0.00 0.00 0.00 86 1008.3
20260506081940 78 160 2.0 6.0 0.00 0.00 0.00 86 1008.4
20260506081437 78 123 2.0 6.0 0.00 0.00 0.00 86 1008.3
20260506080943 78 131 2.0 6.0 0.00 0.00 0.00 86 1008.3
20260506080937 78 117 2.0 6.0 0.00 0.00 0.00 86 1008.3
20260506073428 78 136 1.0 2.0 0.00 0.00 0.00 86 1008.6
20260506072926 78 154 1.0 2.0 0.00 0.00 0.00 86 1008.7
20260506072655 78 154 0.0 5.0 0.00 0.00 0.00 86 1008.6
20260506072155 78 154 1.0 5.0 0.00 0.00 0.00 86 1008.7
20260506071425 78 155 1.0 6.0 0.00 0.00 0.00 86 1008.8
20260506070923 78 155 1.0 6.0 0.00 0.00 0.00 86 1008.8
20260506070423 78 169 1.0 7.0 0.00 0.00 0.00 86 1008.8
20260506070154 78 127 1.0 7.0 0.00 0.00 0.00 86 1008.8
20260506062413 78 128 1.0 6.0 0.00 0.00 0.00 86 1009.1
20260506061913 78 126 1.0 5.0 0.00 0.00 0.00 85 1009.1
20260506061412 78 145 1.0 5.0 0.00 0.00 0.00 85 1009.2
20260506060909 79 130 1.0 8.0 0.00 0.00 0.00 85 1009.1
20260506060412 78 138 1.0 8.0 0.00 0.00 0.00 85 1009.1
20260506051357 79 164 2.0 7.0 0.00 0.00 0.00 85 1008.9
20260506050857 79 149 2.0 7.0 0.00 0.00 0.00 85 1009.0
20260506050356 79 124 2.0 7.0 0.00 0.00 0.00 85 1009.1
20260506050127 79 171 1.0 5.0 0.00 0.00 0.00 84 1009.1
20260506044853 79 108 1.0 4.0 0.00 0.00 0.00 84 1009.1
20260506044356 79 150 1.0 4.0 0.00 0.00 0.00 84 1009.1
20260506043851 79 157 1.0 6.0 0.00 0.00 0.00 84 1009.0
20260506043347 79 140 2.0 7.0 0.00 0.00 0.00 84 1009.0
20260506042846 79 158 2.0 7.0 0.00 0.00 0.00 84 1008.9
20260506042343 79 148 2.0 8.0 0.00 0.00 0.00 84 1008.8
20260506042116 79 155 2.0 8.0 0.00 0.00 0.00 84 1008.9
20260506041342 79 166 2.0 5.0 0.00 0.00 0.00 84 1009.0
20260506041112 79 135 2.0 8.0 0.00 0.00 0.00 84 1009.1
20260506040342 79 112 3.0 8.0 0.00 0.00 0.00 83 1009.0
20260506035835 79 124 3.0 8.0 0.00 0.00 0.00 83 1008.9
20260506035336 80 138 3.0 8.0 0.00 0.00 0.00 83 1008.8
20260506035105 80 140 3.0 8.0 0.00 0.00 0.00 83 1008.8
20260506034607 80 123 2.0 8.0 0.00 0.00 0.00 83 1008.6
20260506033834 80 171 2.0 8.0 0.00 0.00 0.00 83 1008.6
20260506033333 80 144 2.0 8.0 0.00 0.00 0.00 83 1008.6
20260506032833 80 151 2.0 8.0 0.00 0.00 0.00 83 1008.4
20260506032603 80 134 2.0 7.0 0.00 0.00 0.00 83 1008.3
20260506032104 80 150 2.0 6.0 0.00 0.00 0.00 82 1008.4
20260506031334 80 120 2.0 6.0 0.00 0.00 0.00 82 1008.4
20260506030833 80 171 1.0 6.0 0.00 0.00 0.00 82 1008.5
20260506030333 80 125 1.0 8.0 0.00 0.00 0.00 82 1008.4
20260506025831 80 150 2.0 8.0 0.00 0.00 0.00 82 1008.2
20260506025332 80 190 2.0 8.0 0.00 0.00 0.00 82 1008.1
20260506024831 80 127 2.0 8.0 0.00 0.00 0.00 82 1008.1
20260506024329 80 152 3.0 10.0 0.00 0.00 0.00 82 1008.1
20260506023832 80 158 3.0 10.0 0.00 0.00 0.00 82 1008.1
20260506023327 80 163 3.0 9.0 0.00 0.00 0.00 82 1008.0
20260506022828 80 148 3.0 9.0 0.00 0.00 0.00 81 1007.8
20260506022558 80 120 2.0 8.0 0.00 0.00 0.00 81 1007.7
20260506021827 80 181 2.0 8.0 0.00 0.00 0.00 81 1007.7
20260506021327 80 187 2.0 6.0 0.00 0.00 0.00 81 1007.7
20260506020828 80 112 2.0 7.0 0.00 0.00 0.00 81 1007.7
20260506020557 80 117 3.0 11.0 0.00 0.00 0.00 81 1007.6
20260506020045 80 138 3.0 11.0 0.00 0.00 0.00 81 1007.5
20260506015315 80 169 3.0 9.0 0.00 0.00 0.00 80 1007.5
20260506014815 81 113 2.0 9.0 0.00 0.00 0.00 80 1007.4
20260506014316 81 155 2.0 9.0 0.00 0.00 0.00 80 1007.3
20260506014049 81 153 2.0 8.0 0.00 0.00 0.00 80 1007.2
20260506013311 81 167 3.0 8.0 0.00 0.00 0.00 80 1007.1
20260506012816 81 212 2.0 10.0 0.00 0.00 0.00 80 1007.0
20260506012811 81 147 3.0 9.0 0.00 0.00 0.00 80 1007.1
20260506011808 81 173 2.0 10.0 0.00 0.00 0.00 80 1006.9
20260506011312 81 237 2.0 10.0 0.00 0.00 0.00 79 1006.8
20260506010809 81 141 4.0 13.0 0.00 0.00 0.00 79 1006.8
20260506010308 81 155 3.0 13.0 0.00 0.00 0.00 79 1006.8
20260506005809 81 135 2.0 8.0 0.00 0.00 0.00 79 1006.8
20260506005309 81 165 2.0 8.0 0.00 0.00 0.00 79 1006.8
20260506004808 81 141 2.0 7.0 0.00 0.00 0.00 79 1006.7
20260506004310 81 161 2.0 9.0 0.00 0.00 0.00 79 1006.7
20260506003807 81 148 2.0 9.0 0.00 0.00 0.00 79 1006.5
20260506003308 82 162 3.0 9.0 0.00 0.00 0.00 79 1006.5
20260506002801 82 161 3.0 9.0 0.00 0.00 0.00 79 1006.5
20260506002305 82 123 3.0 10.0 0.00 0.00 0.00 78 1006.4
20260506001800 82 134 2.0 10.0 0.00 0.00 0.00 78 1006.4
20260506001303 82 152 2.0 7.0 0.00 0.00 0.00 78 1006.5
20260506000802 82 172 3.0 8.0 0.00 0.00 0.00 78 1006.5
20260506000257 82 168 3.0 8.0 0.00 0.00 0.00 78 1006.5
20260505235757 82 148 2.0 8.0 0.00 0.00 0.00 78 1006.4
20260505235255 82 167 3.0 8.0 0.00 0.00 0.00 78 1006.4
20260505234756 82 160 3.0 10.0 0.00 0.00 0.00 78 1006.3
20260505234255 82 167 3.0 10.0 0.00 0.00 0.00 78 1006.4
20260505234027 82 162 3.0 8.0 0.00 0.00 0.00 78 1006.4
20260505233254 82 119 3.0 8.0 0.00 0.00 0.00 78 1006.5
20260505232754 83 197 2.0 7.0 0.00 0.00 0.00 78 1006.5
20260505232523 83 150 2.0 7.0 0.00 0.00 0.00 78 1006.4
20260505231753 83 156 3.0 9.0 0.00 0.00 0.00 78 1006.4
20260505231256 83 196 3.0 9.0 0.00 0.00 0.00 78 1006.6
20260505230753 83 121 3.0 8.0 0.00 0.00 0.00 78 1006.5
20260505230252 83 181 3.0 9.0 0.00 0.00 0.00 78 1006.5
20260505225748 83 150 2.0 9.0 0.00 0.00 0.00 78 1006.5
20260505225520 83 124 2.0 8.0 0.00 0.00 0.00 78 1006.4
20260505224745 83 236 2.0 7.0 0.00 0.00 0.00 78 1006.4
20260505224244 83 139 1.0 7.0 0.00 0.00 0.00 78 1006.5
20260505224015 83 192 2.0 7.0 0.00 0.00 0.00 78 1006.5
20260505223245 83 195 2.0 7.0 0.00 0.00 0.00 78 1006.6
20260505222741 83 119 2.0 7.0 0.00 0.00 0.00 77 1006.5
20260505222242 83 153 2.0 9.0 0.00 0.00 0.00 78 1006.5
20260505221741 83 203 3.0 10.0 0.00 0.00 0.00 78 1006.5
20260505221229 83 143 3.0 10.0 0.00 0.00 0.00 78 1006.6
20260505220726 83 167 3.0 10.0 0.00 0.00 0.00 78 1006.6
20260505220229 83 179 3.0 11.0 0.00 0.00 0.00 78 1006.7
20260505215726 83 147 3.0 11.0 0.00 0.00 0.00 77 1006.7
20260505215228 83 106 3.0 13.0 0.00 0.00 0.00 77 1006.8
20260505215224 84 182 2.0 13.0 0.00 0.00 0.00 77 1006.7
20260505214229 84 163 3.0 13.0 0.00 0.00 0.00 76 1006.8
20260505213952 84 150 2.0 13.0 0.00 0.00 0.00 77 1006.8
20260505213451 84 222 2.0 8.0 0.00 0.00 0.00 76 1006.9
20260505212721 84 148 2.0 9.0 0.00 0.00 0.00 77 1007.0
20260505212452 84 172 2.0 9.0 0.00 0.00 0.00 77 1007.0
20260505211719 84 191 3.0 9.0 0.00 0.00 0.00 76 1007.0
20260505211217 84 238 3.0 8.0 0.00 0.00 0.00 76 1007.1
20260505210718 84 140 3.0 8.0 0.00 0.00 0.00 77 1007.1
20260505210216 84 135 3.0 8.0 0.00 0.00 0.00 77 1007.2
20260505205945 84 171 3.0 8.0 0.00 0.00 0.00 77 1007.3
20260505205445 83 150 2.0 8.0 0.00 0.00 0.00 78 1007.4
20260505204717 83 160 2.0 7.0 0.00 0.00 0.00 78 1007.4
20260505204212 83 164 2.0 8.0 0.00 0.00 0.00 78 1007.5
20260505203713 83 246 2.0 8.0 0.00 0.00 0.00 78 1007.5
20260505203213 83 124 1.0 8.0 0.00 0.00 0.00 78 1007.7
20260505202711 83 100 2.0 8.0 0.00 0.00 0.00 77 1007.7
20260505202209 83 231 2.0 8.0 0.00 0.00 0.00 77 1007.8
20260505201707 83 200 2.0 8.0 0.00 0.00 0.00 78 1008.0
20260505201208 83 158 2.0 7.0 0.00 0.00 0.00 77 1008.0
20260505200708 83 219 2.0 6.0 0.00 0.00 0.00 77 1007.9
20260505200206 83 188 2.0 7.0 0.00 0.00 0.00 77 1008.0
20260505195708 84 144 2.0 7.0 0.00 0.00 0.00 77 1008.1
20260505195207 83 209 3.0 7.0 0.00 0.00 0.00 77 1008.1
20260505194939 83 90 2.0 7.0 0.00 0.00 0.00 78 1008.1
20260505194438 83 138 2.0 8.0 0.00 0.00 0.00 78 1008.2
20260505193700 82 142 3.0 8.0 0.00 0.00 0.00 78 1008.3
20260505193157 83 198 2.0 8.0 0.00 0.00 0.00 78 1008.3
20260505192656 83 197 2.0 8.0 0.00 0.00 0.00 78 1008.3
20260505192201 83 190 3.0 10.0 0.00 0.00 0.00 78 1008.5
20260505192157 83 134 2.0 8.0 0.00 0.00 0.00 78 1008.4
20260505191158 82 127 2.0 10.0 0.00 0.00 0.00 78 1008.5
20260505190921 82 42 2.0 6.0 0.00 0.00 0.00 79 1008.5
20260505190151 82 122 2.0 8.0 0.00 0.00 0.00 80 1008.5
20260505185650 81 156 2.0 8.0 0.00 0.00 0.00 80 1008.6
20260505185150 81 168 2.0 5.0 0.00 0.00 0.00 80 1008.6
20260505184650 82 166 2.0 11.0 0.00 0.00 0.00 80 1008.7
20260505184424 82 140 2.0 11.0 0.00 0.00 0.00 80 1008.7
20260505183651 82 163 3.0 11.0 0.00 0.00 0.00 80 1008.7
20260505183146 81 149 3.0 11.0 0.00 0.00 0.00 81 1008.7
20260505182646 81 177 2.0 8.0 0.00 0.00 0.00 82 1008.7
20260505182146 80 159 2.0 8.0 0.00 0.00 0.00 82 1008.8